Regional Weather Roundup
Issued by NWS

Home | Current Version | Previous Version | Text Only | Print | Product List | Glossary Off
Versions: 1 2 3 4 5 6 7 8 9 10 11 12 13 14 15 16 17 18 19 20 21 22 23 24 25 26 27 28 29 30 31 32 33 34 35 36 37 38 39 40 41 42 43 44 45 46 47 48 49 50

457
ASUS45 KTFX 130110
RWRMT
MONTANA REGIONAL WEATHER ROUNDUP
NATIONAL WEATHER SERVICE GREAT FALLS MT
600 PM MST FRI FEB 12 2016

NOTE: "FAIR" INDICATES FEW OR NO CLOUDS BELOW 12000 FEET WITH NO
SIGNIFICANT WEATHER AND/OR OBSTRUCTIONS TO VISIBILITY.

MTZ001>007-043-130200-
WEST OF THE DIVIDE

CITY           SKY/WX    TMP DP  RH WIND       PRES   REMARKS
KALISPELL      FOG       36  35  96 CALM      30.11F VSB 1/4
MISSOULA       CLOUDY    40  36  86 NE5       30.12F
BUTTE          CLOUDY    39  32  76 VRB3      30.14S
MULLAN PASS    CLOUDY    36  32  85 SW3       30.11S
ANACONDA         N/A     41  36  81 CALM      30.12F
DEER LODGE       N/A     39  36  87 CALM      30.14S
HAMILTON         N/A     48  41  76 CALM      30.10F
PLAINS           N/A     45  38  76 CALM      30.11
THOMPSON FALLS   N/A     44  42  93 W3        30.15S
$$

MTZ008-052>055-130200-
SOUTHWEST MONTANA

CITY           SKY/WX    TMP DP  RH WIND       PRES   REMARKS
BOZEMAN        CLOUDY    36  32  85 N3        30.12R
DILLON         CLOUDY    40  27  59 SW14      30.14R
ENNIS          PTCLDY    45  21  39 S17G25    30.22R
TWIN BRIDGES     N/A     42  29  60 E7        30.11S
$$

MTZ009-010-012-014-046-048-049-054-130200-
EAST SLOPES AND CENTRAL MONTANA

CITY           SKY/WX    TMP DP  RH WIND       PRES   REMARKS
CUT BANK       PTCLDY    46  36  68 W25G33    29.97F
GREAT FALLS    CLEAR     51  33  50 SW18      30.00F
MALMSTROM AFB  PTCLDY    44  38  78 E3        30.01F
HELENA         CLOUDY    46  37  71 NW3       30.09S
CHOTEAU          N/A     55  32  41 W18G28    30.00S
CONRAD           N/A     41  37  85 NE3       30.03S
$$

MTZ011-013-016-021-045-047-050-051-130200-
NORTH CENTRAL MONTANA

CITY           SKY/WX    TMP DP  RH WIND       PRES   REMARKS
HAVRE          CLOUDY    29  25  85 NE12      30.05F WCI  19
LEWISTOWN      MOCLDY    38  32  79 SE8       30.06S
N BAR RANCH      N/A     36  30  80 CALM      30.10S
CHINOOK          N/A     25  21  86 E18G26    30.09F WCI  11
$$

MTZ017>020-022>027-061-062-130200-
NORTHEAST MONTANA

CITY           SKY/WX    TMP DP  RH WIND       PRES   REMARKS
GLASGOW        LGT SNOW  17  12  80 E23       30.25F VSB 1   WCI  -1
JORDAN           N/A     28  26  92 E10       30.19F WCI  19
SIDNEY         CLOUDY    16   5  62 SE12      30.41R WCI   3
WOLF POINT     LGT SNOW  19  10  68 E15       30.34F WCI   5
PLENTYWOOD       N/A     10   1  67 SE13      30.38F WCI  -5
POPLAR           N/A     18   9  68 E10       30.36F WCI   6
SCOBEY           N/A     12  -3  51 E14       30.26  WCI  -3
$$

MTZ028>42-056>058-130200-
SOUTHCENTRAL AND SOUTHEAST MONTANA

CITY           SKY/WX    TMP DP  RH WIND       PRES   REMARKS
BAKER          CLOUDY    21  13  71 SE22      30.28F WCI   5
BILLINGS       CLOUDY    41  31  67 E6        30.10F
LIVINGSTON     CLOUDY    49  35  58 NW5       30.08F
MILES CITY     CLOUDY    35  26  69 E10       30.20F WCI  27
FORSYTH          N/A     36  28  75 E9        30.17F WCI  29
ROUNDUP          N/A     40  29  65 CALM      30.02R
$$

REGIONAL REPORTS...DAKOTAS

CITY           SKY/WX    TMP DP  RH WIND       PRES   REMARKS
WILLISTON      CLOUDY    13   2  61 E9        30.44S WCI   1
MINOT          CLOUDY     2  -8  63 E7        30.53F WCI -11
DICKINSON      CLOUDY    10   2  69 SE13      30.39F WCI  -5
BEACH          CLOUDY    14   9  79 SE17      30.35F WCI  -3
CROSBY           N/A      9   0  66 SE7       30.48S WCI  -3
TIOGA            N/A      7   0  72 SE10      30.49S WCI  -8
WATFORD CITY   MOCLDY    10   0  61 SE9       30.43F WCI  -2
BISMARCK       CLOUDY     8  -3  61 E8        30.57F WCI  -4
GRAND FORKS    CLOUDY    -2 -11  65 NW7       30.67F WCI -15
FARGO          CLOUDY    -2 -11  65 NW10      30.68S WCI -19
BUFFALO SD       N/A     21  15  78 SE16G23   30.25F WCI   7
RAPID CITY     CLOUDY    23  21  92 SE14      30.34F WCI  11
$$

REGIONAL REPORTS...WYOMING/IDAHO/WASHINGTON

CITY           SKY/WX    TMP DP  RH WIND       PRES   REMARKS
GILLETTE       CLOUDY    39  29  67 SE8       30.17F
SHERIDAN       CLOUDY    41  31  67 E3        30.13F
BUFFALO WY     CLOUDY    41  30  65 S8        30.15F
CODY           CLOUDY    46  25  42 SE14      30.12R
YELLOWSTONE LA   N/A     35  15  44 CALM      30.29S
IDAHO FALLS    CLOUDY    25  22  88 N5        30.27F
SALMON         CLOUDY    34  28  80 CALM      30.22F
BOISE          CLOUDY    47  33  58 CALM      30.22F
SPOKANE        CLOUDY    46  42  86 NW6       30.10R
$$

REGIONAL REPORTS...ALBERTA

CITY           SKY/WX    TMP DP  RH WIND       PRES   REMARKS
EDMONTON       LGT SNOW  18  12  79 SE14      29.99F WCI   4
CALGARY        FOG       28  28 100 S14       29.89F VSB 5/8 WCI  17
LETHBRIDGE     PTCLDY    50  36  57 W21G31    29.92F
MEDICINE HAT   PTCLDY    32  28  86 NE8       30.00F WCI  25
$$

REGIONAL REPORTS...SASKATCHEWAN

CITY           SKY/WX    TMP DP  RH WIND       PRES   REMARKS
SWIFT CURRENT  LGT SNOW  14  10  85 SE22G29   30.15F WCI  -4
REGINA         MOCLDY     7  -2  66 SE17      30.41F WCI -12
SASKATOON      MOCLDY     3  -4  72 E17       30.38F WCI -17
$$




USA.gov is the U.S. government's official web portal to all federal, state and local government web resources and services.